Location: Franzen
(48.6167°N, 15.3833°E)
Time: 02:39:36
(UTC+00:00)

COSMOS 2455 - Visible Passes

Search period start: 26 July 2021 00:00
Search period end: 05 August 2021 00:00
Orbit: 901 x 908 km, 67.1° (Epoch: 25 July)

Date Brightness Start Highest point End Pass type
(mag) Time Alt. Az. Time Alt. Az. Time Alt. Az.
26 Jul 5.0 01:24:55 10° WNW 01:29:14 20° NNW 01:33:34 10° NNE visible
26 Jul 3.3 21:59:07 36° SE 22:00:15 40° ESE 22:05:49 10° NE visible
26 Jul 3.6 23:42:13 20° WSW 23:46:08 47° NW 23:51:58 10° NNE visible
27 Jul 5.2 01:29:41 10° WNW 01:33:37 17° NNW 01:37:34 10° NNE visible
27 Jul 3.0 22:02:33 41° SSE 22:04:09 52° ESE 22:09:59 10° NE visible
27 Jul 4.0 23:45:39 14° WSW 23:50:18 38° NW 23:55:55 10° NNE visible
28 Jul 5.2 01:34:28 10° NW 01:38:02 16° NNW 01:41:36 10° NNE visible
28 Jul 4.6 20:22:49 12° ESE 20:23:17 12° E 20:25:32 10° ENE visible
28 Jul 2.8 22:05:54 40° S 22:08:05 68° ESE 22:14:05 10° NE visible
28 Jul 4.3 23:49:10 10° W 23:54:31 32° NW 23:59:53 10° NNE visible
29 Jul 5.3 01:39:15 10° NW 01:42:28 14° NNW 01:45:40 10° NNE visible
29 Jul 4.3 20:26:05 16° ESE 20:27:01 17° ESE 20:30:42 10° ENE visible
29 Jul 2.7 22:09:10 33° SSW 22:12:05 86° ESE 22:18:09 10° NE visible
29 Jul 4.6 23:53:44 10° W 23:58:46 27° NW 00:03:49 10° NNE visible
30 Jul 5.4 01:44:01 10° NW 01:46:56 14° N 01:49:51 10° NNE visible
30 Jul 4.0 20:29:13 20° SE 20:30:47 23° ESE 20:35:19 10° ENE visible
30 Jul 2.9 22:12:17 24° SW 22:16:07 75° NW 22:22:10 10° NNE visible
30 Jul 4.9 23:58:22 10° W 00:03:04 23° NNW 00:07:47 10° NNE visible
31 Jul 5.5 01:48:40 10° NNW 01:51:24 13° N 01:54:09 10° NNE visible
31 Jul 3.7 20:32:10 22° SSE 20:34:35 30° ESE 20:39:43 10° NE visible
31 Jul 3.3 22:15:13 15° SW 22:20:11 60° NW 22:26:10 10° NNE visible
01 Aug 5.1 00:03:04 10° WNW 00:07:24 20° NNW 00:11:45 10° NNE visible
01 Aug 5.5 01:53:11 10° NNW 01:55:53 13° N 01:58:35 10° NNE visible
01 Aug 3.3 20:34:51 20° S 20:38:26 39° ESE 20:43:59 10° NE visible
01 Aug 3.7 22:18:31 10° WSW 22:24:18 48° NW 22:30:09 10° NNE visible
02 Aug 5.3 00:07:50 10° WNW 00:11:46 18° NNW 00:15:44 10° NNE visible
02 Aug 5.6 01:57:34 10° NNW 02:00:22 13° N 02:03:09 10° NNE visible
02 Aug 3.0 20:37:04 13° S 20:42:20 51° ESE 20:48:09 10° NE visible
02 Aug 4.1 22:22:53 10° WSW 22:28:28 39° NW 22:34:06 10° NNE visible
03 Aug 5.4 00:12:38 10° NW 00:16:12 16° NNW 00:19:46 10° NNE visible
03 Aug 5.6 02:01:48 10° NNW 02:04:50 14° N 02:07:52 10° NE visible
03 Aug 2.8 20:40:20 10° SSW 20:46:17 67° ESE 20:52:16 10° NE visible
03 Aug 4.5 22:27:21 10° WSW 22:32:41 32° NW 22:38:03 10° NNE visible
04 Aug 5.5 00:17:25 10° NW 00:20:38 14° NNW 00:23:51 10° NNE visible
04 Aug 5.6 02:05:57 10° NNW 02:09:17 15° NNE 02:12:37 10° NE visible
04 Aug 4.3 19:01:33 10° SE 19:05:12 17° ESE 19:08:51 10° ENE visible
04 Aug 2.8 20:44:15 10° SSW 20:50:15 86° SE 20:56:20 10° NE visible
04 Aug 4.8 22:31:54 10° W 22:36:55 27° NW 22:42:00 10° NNE visible
